Showing default

COSMOS 2204 (GLONASS), 22057

Orbit data source: Space-Track

COSMOS 2204 (GLONASS), 22057 is a payload satellite owned by VVS (CIS) in MEO that was launched on Thu, 30 Jul 1992 UTC via a PROTON-K/DM-2 launch vehicle from the Tyuratam Missile And Space Complex (TTMTR). Payload-class satellites include a variety of spacecraft equipped with specific instruments for various scientific and technological missions. These include communications satellites like Starlink; space stations such as the ISS; scientific satellites like the Hubble; Earth observation satellites from companies like Planet Labs, Umbra, and HawkEye 360; GPS; miniature CubeSats for education and research; and military/defense satellites.

Loading next visibility...
Identifier
22057, 1992-047B
Orbit
MEO
Country
Flag of CISCIS
Related business
Manufacturer
Polyot
Mission
Non-operational Defense Navigation
Bus & Motor
URAGAN, Unknown motor
Mass
1,300 kg wet, ~1,200 kg dry
Launch date (UTC)
1992-07-30 (33 years ago)
Launch vehicle
PROTON-K/DM-2
Launch site
Tyuratam Missile And Space Complex (TTMTR)
Object type
Payload
Rocket body
Debris
Shape & HBR
Cyl + 2 Pan, 4.2 m
Radar Cross Section
14.707 m², Large (>1 m²)

Expand to show TLE details & history
Last TLE update: 5 days ago

TLE from 5 days ago
0 COSMOS 2204 (GLONASS)
1 22057U 92047B   25345.06943170 -.00000053  00000-0  00000-0 0  9996
2 22057  64.2845 308.9287 0015973 339.6577 199.4280  2.13102878259527
Epoch: 2025-12-11T01:39Z
TLE epoch observation values (Epoch: 2025-12-11T01:39:58.898Z)
Latitude
0.82172°
Longitude
23.49429°
Altitude
19,168.667 km
Speed
3.947 km/s
True Right ascension
08h 34m 04s
True Declination
0° 49' 13"
Sunlit
Object was in daylight at epoch
Visualization orbit readout
Latitude
Unknown
Longitude
Unknown
Altitude
Unknown
Speed
Unknown
Apparent Right ascension
Unknown
Apparent Declination
Unknown
Sunlit
N/A
Visualization observer readout
Local Sidereal Time
23:05:40
Azimuth
Unknown
Elevation
Unknown
Doppler factor
Unknown
Orbital elements
Apogee altitude
19,170.201 km
Perigee altitude
19,088.714 km
Semi-major axis
25,507.594 km
Eccentricity
0.0016
Inclination
64.2845°
RAAN
308.9287°
Arg. of periapsis
339.6577°
True anomaly
199.36723°
Mean anomaly
199.428°
Eccentric anomaly
199.3976°
Mean motion
0.53277 °/min
Orbital period
675.72 mins
BSTAR
0
Loading maneuver chart data...
Computing Atmospheric mass density...
Loading historical data...
Loading historical data...
Loading historical data...
Loading historical data...
Loading historical data...
Loading historical data...
Loading historical data...

Documentation

Showing up to 5 results
|